TimeCST,TemperatureF,Dew PointF,Humidity,Sea Level PressureIn,VisibilityMPH,Wind Direction,Wind SpeedMPH,Gust SpeedMPH,PrecipitationIn,Events,Conditions,WindDirDegrees,DateUTC
12:15 AM,48.2,42.8,82,30.12,10.0,Calm,Calm,-,N/A,,Clear,0,2014-02-24 06:15:00
12:35 AM,48.2,42.8,82,30.12,9.0,Calm,Calm,-,N/A,,Clear,0,2014-02-24 06:35:00
12:55 AM,48.2,42.8,82,30.12,10.0,Calm,Calm,-,N/A,,Clear,0,2014-02-24 06:55:00
1:15 AM,46.4,41.0,81,30.12,10.0,Calm,Calm,-,N/A,,Clear,0,2014-02-24 07:15:00
1:35 AM,46.4,42.8,87,30.12,10.0,Calm,Calm,-,N/A,,Clear,0,2014-02-24 07:35:00
1:55 AM,44.6,41.0,87,30.12,10.0,Calm,Calm,-,N/A,,Clear,0,2014-02-24 07:55:00
2:15 AM,42.8,41.0,93,30.11,9.0,Calm,Calm,-,N/A,,Clear,0,2014-02-24 08:15:00
2:35 AM,44.6,41.0,87,30.11,10.0,Calm,Calm,-,N/A,,Clear,0,2014-02-24 08:35:00
2:55 AM,44.6,41.0,87,30.10,10.0,Calm,Calm,-,N/A,,Clear,0,2014-02-24 08:55:00
3:15 AM,44.6,41.0,87,30.10,10.0,Calm,Calm,-,N/A,,Clear,0,2014-02-24 09:15:00
3:35 AM,44.6,39.2,81,30.10,10.0,ENE,4.6,-,N/A,,Clear,70,2014-02-24 09:35:00
4:00 AM,46.4,39.2,76,30.11,10.0,ENE,3.5,-,N/A,,Clear,70,2014-02-24 10:00:00
4:15 AM,46.4,39.2,76,30.10,10.0,East,3.5,-,N/A,,Clear,80,2014-02-24 10:15:00
4:35 AM,46.4,39.2,76,30.11,10.0,ENE,4.6,-,N/A,,Clear,70,2014-02-24 10:35:00
4:55 AM,46.4,37.4,71,30.11,10.0,ENE,3.5,-,N/A,,Clear,70,2014-02-24 10:55:00
5:15 AM,46.4,37.4,71,30.12,10.0,ENE,4.6,-,N/A,,Clear,70,2014-02-24 11:15:00
5:35 AM,44.6,37.4,76,30.12,10.0,ENE,3.5,-,N/A,,Clear,70,2014-02-24 11:35:00
5:55 AM,44.6,37.4,76,30.12,10.0,ENE,3.5,-,N/A,,Clear,60,2014-02-24 11:55:00
6:15 AM,44.6,37.4,76,30.13,10.0,ENE,4.6,-,N/A,,Clear,70,2014-02-24 12:15:00
6:35 AM,44.6,37.4,76,30.14,10.0,ENE,4.6,-,N/A,,Scattered Clouds,60,2014-02-24 12:35:00
6:55 AM,44.6,37.4,76,30.15,10.0,ENE,5.8,-,N/A,,Overcast,60,2014-02-24 12:55:00
7:15 AM,44.6,37.4,76,30.15,9.0,ENE,3.5,-,N/A,,Overcast,60,2014-02-24 13:15:00
7:35 AM,44.6,37.4,76,30.14,10.0,ENE,4.6,-,N/A,,Mostly Cloudy,70,2014-02-24 13:35:00
7:55 AM,46.4,37.4,71,30.14,10.0,East,3.5,-,N/A,,Overcast,80,2014-02-24 13:55:00
8:15 AM,46.4,37.4,71,30.15,10.0,East,4.6,-,N/A,,Mostly Cloudy,90,2014-02-24 14:15:00
8:40 AM,46.4,37.4,71,30.17,10.0,East,4.6,-,N/A,,Mostly Cloudy,100,2014-02-24 14:40:00
8:55 AM,46.4,37.4,71,30.18,10.0,East,3.5,-,N/A,,Scattered Clouds,80,2014-02-24 14:55:00
9:15 AM,48.2,37.4,66,30.18,10.0,ENE,5.8,-,N/A,,Mostly Cloudy,60,2014-02-24 15:15:00
9:35 AM,48.2,37.4,66,30.18,10.0,ENE,3.5,-,N/A,,Overcast,70,2014-02-24 15:35:00
9:55 AM,48.2,37.4,66,30.19,10.0,ENE,4.6,-,N/A,,Overcast,70,2014-02-24 15:55:00
10:15 AM,50.0,39.2,66,30.18,10.0,ENE,4.6,-,N/A,,Overcast,60,2014-02-24 16:15:00
10:35 AM,51.8,39.2,62,30.18,10.0,NE,3.5,-,N/A,,Overcast,50,2014-02-24 16:35:00
10:55 AM,51.8,39.2,62,30.18,9.0,ENE,4.6,-,N/A,,Overcast,60,2014-02-24 16:55:00
11:15 AM,53.6,41.0,62,30.18,9.0,ESE,4.6,-,N/A,,Overcast,110,2014-02-24 17:15:00
11:35 AM,53.6,39.2,58,30.17,9.0,East,3.5,-,N/A,,Overcast,100,2014-02-24 17:35:00
11:55 AM,53.6,39.2,58,30.17,10.0,ENE,4.6,-,N/A,,Overcast,60,2014-02-24 17:55:00
12:15 PM,55.4,41.0,58,30.14,10.0,East,3.5,-,N/A,,Overcast,100,2014-02-24 18:15:00
12:35 PM,55.4,41.0,58,30.13,10.0,ENE,3.5,-,N/A,,Overcast,70,2014-02-24 18:35:00
12:55 PM,55.4,41.0,58,30.15,10.0,Calm,Calm,-,N/A,,Overcast,0,2014-02-24 18:55:00
1:15 PM,55.4,41.0,58,30.13,10.0,Calm,Calm,-,N/A,,Overcast,0,2014-02-24 19:15:00
1:35 PM,55.4,41.0,58,30.12,9.0,Calm,Calm,-,N/A,,Overcast,0,2014-02-24 19:35:00
1:55 PM,55.4,41.0,58,30.12,10.0,NE,3.5,-,N/A,,Overcast,40,2014-02-24 19:55:00
2:15 PM,57.2,41.0,55,30.11,10.0,NE,3.5,-,N/A,,Overcast,40,2014-02-24 20:15:00
2:35 PM,55.4,41.0,58,30.11,10.0,Calm,Calm,-,N/A,,Overcast,0,2014-02-24 20:35:00
2:55 PM,57.2,41.0,55,30.11,9.0,Calm,Calm,-,N/A,,Overcast,0,2014-02-24 20:55:00
3:15 PM,57.2,42.8,59,30.10,9.0,ENE,3.5,-,N/A,,Overcast,70,2014-02-24 21:15:00
3:35 PM,57.2,42.8,59,30.09,9.0,Calm,Calm,-,N/A,,Overcast,0,2014-02-24 21:35:00
3:55 PM,57.2,42.8,59,30.08,9.0,Calm,Calm,-,N/A,,Overcast,0,2014-02-24 21:55:00
4:15 PM,57.2,42.8,59,30.08,10.0,NE,3.5,-,N/A,,Overcast,50,2014-02-24 22:15:00
4:35 PM,57.2,42.8,59,30.07,9.0,ENE,4.6,-,N/A,,Overcast,60,2014-02-24 22:35:00
4:55 PM,57.2,42.8,59,30.06,10.0,Calm,Calm,-,N/A,,Overcast,0,2014-02-24 22:55:00
5:15 PM,57.2,42.8,59,30.05,10.0,Calm,Calm,-,N/A,,Overcast,0,2014-02-24 23:15:00
5:35 PM,57.2,42.8,59,30.05,10.0,Calm,Calm,-,N/A,,Overcast,0,2014-02-24 23:35:00
5:55 PM,57.2,42.8,59,30.06,10.0,ENE,3.5,-,N/A,,Overcast,60,2014-02-24 23:55:00
6:15 PM,57.2,42.8,59,30.08,10.0,Calm,Calm,-,N/A,,Overcast,0,2014-02-25 00:15:00
6:35 PM,55.4,41.0,58,30.07,10.0,Calm,Calm,-,N/A,,Overcast,0,2014-02-25 00:35:00
6:55 PM,55.4,42.8,63,30.07,10.0,Calm,Calm,-,N/A,,Overcast,0,2014-02-25 00:55:00
7:15 PM,55.4,41.0,58,30.07,10.0,Calm,Calm,-,N/A,,Overcast,0,2014-02-25 01:15:00
7:35 PM,55.4,41.0,58,30.08,10.0,Calm,Calm,-,N/A,,Overcast,0,2014-02-25 01:35:00
7:55 PM,55.4,41.0,58,30.09,10.0,Calm,Calm,-,N/A,,Overcast,0,2014-02-25 01:55:00
8:15 PM,55.4,39.2,54,30.09,10.0,Calm,Calm,-,N/A,,Overcast,0,2014-02-25 02:15:00
8:35 PM,53.6,39.2,58,30.09,10.0,Calm,Calm,-,N/A,,Overcast,0,2014-02-25 02:35:00
8:55 PM,53.6,39.2,58,30.08,10.0,ENE,3.5,-,N/A,,Overcast,60,2014-02-25 02:55:00
9:15 PM,53.6,39.2,58,30.07,10.0,ENE,3.5,-,N/A,,Overcast,70,2014-02-25 03:15:00
9:35 PM,53.6,39.2,58,30.08,10.0,Calm,Calm,-,N/A,,Overcast,0,2014-02-25 03:35:00
9:55 PM,53.6,39.2,58,30.09,10.0,Calm,Calm,-,N/A,,Overcast,0,2014-02-25 03:55:00
10:15 PM,53.6,39.2,58,30.08,10.0,Calm,Calm,-,N/A,,Overcast,0,2014-02-25 04:15:00
10:35 PM,51.8,39.2,62,30.07,10.0,Calm,Calm,-,N/A,,Scattered Clouds,0,2014-02-25 04:35:00
10:55 PM,51.8,39.2,62,30.07,10.0,Calm,Calm,-,N/A,,Partly Cloudy,0,2014-02-25 04:55:00
11:15 PM,50.0,41.0,71,30.07,10.0,Calm,Calm,-,N/A,,Mostly Cloudy,0,2014-02-25 05:15:00
11:35 PM,51.8,39.2,62,30.07,10.0,Calm,Calm,-,N/A,,Overcast,0,2014-02-25 05:35:00
11:55 PM,51.8,39.2,62,30.08,10.0,Calm,Calm,-,N/A,,Overcast,0,2014-02-25 05:55:00